Location: Karlsruhe
(49.0131°N, 8.3874°E)
Time: 13:32:26
(UTC+01:00)

ISS - Pass Details

Date: 11 November 2017
Orbit: 402 x 407 km, 51.6° (Epoch: 19 November)

Event Time Altitude Azimuth Distance (km) Brightness Sun altitude
Exits shadow 06:42:44 11° 288° (WNW) 1,402 -1.8 -8.0°
Maximum altitude 06:45:50 70° 205° (SSW) 430 -3.7 -7.5°
Drops below altitude 10° 06:49:05 10° 120° (ESE) 1,452 0.6 -7.0°
Sets 06:51:09 0° 119° (ESE) 2,310 2.2 -6.7°
